sat.trackr.live / text

‹ back to catalog

GLOBAL-17

NORAD 49949 · 2021-120A

PAYLOAD ACTIVE UNKNOWN

§ Identity

Operator
Country
US
Launch date
2021-12-09
Launch site
RLLB
Launch vehicle
Mass (kg)
RCS (m²)

External: N2YO · Heavens-Above · Gunter

§ Orbital elements

Epoch: 2026-05-25T04:10:32.416320Z

Period
92.85 min
Inclination
41.9940°
Eccentricity
0.0011739
Mean motion
15.50968272 rev/d
Perigee alt
405.9 km
Apogee alt
421.9 km
Semi-major
6,792.0 km
B*
3.9613e-4
RAAN
186.2948°
Arg perigee
92.8269°
Mean anomaly
267.3919°
Rev number
25,132

§ Raw data

GLOBAL-171 49949U 21120A   26145.17398630  .00023396  00000+0  39613-3 0  99932 49949  41.9940 186.2948 0011739  92.8269 267.3919 15.50968272251324

JSON: /api/v1/satellites/49949 · /tle

For live sub-satellite position, see the globe view (requires WebGL).

§ Visibility from observer

Set your observer location to see the next 7 days of passes ≥ 10°. The values pass through the URL so the page stays shareable.

No JS? Fill the form by hand. The geolocation button needs JavaScript.

§ Radio — SatNOGS DB

ModeDescriptionDownlinkUplink
FM Telemetry 400.875 MHz

1 transmitter · refreshed weekly from db.satnogs.org